This demonstration page uses our WeatherBlox Daily Observations layout. Learn more.

Left ArrowRight Arrow

44.89941, -97.11507

Hourly Observations for November 29, 2022

Temp ( °F °C ) Dew Point ( °F °C ) Humidity (%) Winds ( mph kmh ) Pressure ( in mb ) Visibility ( mi km ) Precip ( " mm )
12:53 am 00:53 Cloudy 26 -3.3 18 -7.8 71 71 NW 12 19 29.79 1009 10 16 0.00 0.00
1:53 am 01:53 Cloudy 25 -3.9 15 -9.4 65 65 NW 16 26 29.78 1008 10 16 0.00 0.00
2:53 am 02:53 Cloudy 23 -5 12 -11.1 62 62 NNW 12 19 29.79 1009 10 16 0.00 0.00
3:53 am 03:53 Cloudy 22 -5.6 12 -11.1 65 65 NW 12 19 29.80 1009 10 16 0.00 0.00
4:53 am 04:53 Cloudy 22 -5.6 12 -11.1 65 65 NW 12 19 29.79 1009 10 16 0.00 0.00
5:53 am 05:53 Cloudy 21 -6.1 12 -11.1 68 68 NW 10 17 29.80 1009 10 16 0.00 0.00
6:53 am 06:53 Cloudy 19 -7.2 10 -12.2 67 67 NW 15 24 29.81 1010 10 16 0.00 0.00
7:53 am 07:53 Cloudy 19 -7.2 9 -12.8 64 64 NW 14 22 29.80 1009 10 16 0.00 0.00
8:53 am 08:53 Cloudy 18 -7.8 9 -12.8 67 67 NW 13 20 29.81 1010 10 16 0.00 0.00
9:53 am 09:53 Mostly Cloudy 18 -7.8 8 -13.3 65 65 NW 18 30 29.80 1009 10 16 0.00 0.00
10:53 am 10:53 Mostly Cloudy 17 -8.3 8 -13.3 67 67 NW 18 30 29.80 1009 10 16 0.00 0.00
11:53 am 11:53 Mostly Sunny 18 -7.8 8 -13.3 65 65 NW 17 28 29.78 1009 10 16 0.00 0.00
12:53 pm 12:53 Sunny 21 -6.1 9 -12.8 59 59 NW 15 24 29.76 1008 10 16 0.00 0.00
1:53 pm 13:53 Sunny 22 -5.6 9 -12.8 57 57 NW 17 28 29.76 1008 10 16 0.00 0.00
2:53 pm 14:53 Partly Cloudy 22 -5.6 9 -12.8 57 57 WNW 17 28 29.78 1009 10 16 0.00 0.00
3:53 pm 15:53 Cloudy 21 -6.1 10 -12.2 62 62 WNW 22 35 29.80 1009 10 16 0.00 0.00
4:35 pm 16:35 Cloudy 20 -6.7 10 -12.2 65 65 WNW 17 28 29.87 1011 10 16 0.00 0.00
4:53 pm 16:53 Cloudy 20 -6.7 10 -12.2 65 65 WNW 23 37 29.83 1010 10 16 0.00 0.00
5:53 pm 17:53 Cloudy 20 -6.7 10 -12.2 65 65 WNW 22 35 29.85 1011 10 16 0.00 0.00
6:11 pm 18:11 Windy with Snow Likely 20 -6.7 11 -11.7 67 67 WNW 21 33 29.91 1013 9 14 0.01 0.13
6:41 pm 18:41 Windy with Snow Likely 19 -7.2 10 -12.2 67 67 WNW 20 31 29.93 1014 9 14 0.01 0.13
6:53 pm 18:53 Cloudy 19 -7.2 10 -12.2 67 67 WNW 22 35 29.88 1012 10 16 0.01 0.13
7:21 pm 19:21 Cloudy 18 -7.8 11 -11.7 73 73 W 17 28 29.95 1014 9 14 0.01 0.13
7:53 pm 19:53 Cloudy 18 -7.8 11 -11.7 73 73 WNW 18 30 29.90 1012 10 16 0.01 0.13
8:11 pm 20:11 Cloudy 19 -7.2 10 -12.2 67 67 WNW 22 35 29.95 1014 10 16 0.00 0.00
8:21 pm 20:21 Cloudy 18 -7.8 9 -12.8 67 67 WNW 21 33 29.96 1014 10 16 0.00 0.00
8:53 pm 20:53 Cloudy 18 -7.8 9 -12.8 67 67 WNW 25 41 29.92 1013 10 16 0.00 0.00
9:08 pm 21:08 Cloudy 18 -7.8 9 -12.8 67 67 WNW 21 33 29.98 1015 10 16 0.00 0.00
9:53 pm 21:53 Cloudy 18 -7.8 9 -12.8 67 67 WNW 18 30 29.94 1014 10 16 0.00 0.00
10:19 pm 22:19 Cloudy 17 -8.3 9 -12.8 70 70 WNW 23 37 30.00 1016 10 16 0.00 0.00
10:53 pm 22:53 Cloudy 17 -8.3 9 -12.8 70 70 WNW 23 37 29.96 1015 10 16 0.00 0.00
11:53 pm 23:53 Cloudy 16 -8.9 8 -13.3 70 70 WNW 22 35 29.97 1015 10 16 0.00 0.00

Powered by AerisWeather